TimeEST,TemperatureF,Dew PointF,Humidity,Sea Level PressureIn,VisibilityMPH,Wind Direction,Wind SpeedMPH,Gust SpeedMPH,PrecipitationIn,Events,Conditions,WindDirDegrees,DateUTC
12:32 AM,35.6,28.4,75,29.96,10.0,SSW,9.2,-,N/A,,Mostly Cloudy,200,2013-02-23 05:32:00
12:53 AM,35.1,28.9,78,29.97,10.0,South,8.1,-,N/A,,Clear,190,2013-02-23 05:53:00
1:53 AM,36.0,28.0,73,29.95,10.0,South,9.2,-,N/A,,Overcast,180,2013-02-23 06:53:00
2:53 AM,36.0,28.9,76,29.95,10.0,South,5.8,-,N/A,,Overcast,180,2013-02-23 07:53:00
3:53 AM,36.0,28.0,73,29.92,10.0,South,9.2,-,N/A,,Overcast,190,2013-02-23 08:53:00
4:53 AM,36.0,28.9,76,29.92,10.0,South,8.1,-,N/A,,Overcast,180,2013-02-23 09:53:00
5:53 AM,36.0,28.0,73,29.94,10.0,SSW,10.4,-,N/A,,Overcast,200,2013-02-23 10:53:00
6:53 AM,36.0,28.0,73,29.93,10.0,SSW,8.1,-,N/A,,Overcast,210,2013-02-23 11:53:00
7:53 AM,32.0,30.0,92,29.94,10.0,West,12.7,-,N/A,,Overcast,280,2013-02-23 12:53:00
8:53 AM,33.1,28.9,85,29.95,10.0,West,11.5,-,N/A,,Overcast,260,2013-02-23 13:53:00
9:53 AM,30.9,26.1,82,29.96,10.0,West,20.7,-,N/A,,Overcast,270,2013-02-23 14:53:00
10:53 AM,30.9,23.0,72,29.96,10.0,West,19.6,-,N/A,,Overcast,270,2013-02-23 15:53:00
11:53 AM,32.0,23.0,69,29.95,10.0,West,15.0,-,N/A,,Overcast,270,2013-02-23 16:53:00
12:25 PM,32.0,24.8,75,29.92,10.0,West,13.8,-,N/A,,Overcast,280,2013-02-23 17:25:00
12:53 PM,32.0,23.0,69,29.94,10.0,West,12.7,-,N/A,,Overcast,280,2013-02-23 17:53:00
1:53 PM,33.1,24.1,70,29.92,10.0,West,10.4,-,N/A,,Mostly Cloudy,280,2013-02-23 18:53:00
2:53 PM,32.0,25.0,75,29.93,10.0,WNW,12.7,-,N/A,,Overcast,290,2013-02-23 19:53:00
3:53 PM,32.0,25.0,75,29.91,10.0,WNW,10.4,-,N/A,,Overcast,290,2013-02-23 20:53:00
4:53 PM,30.9,25.0,79,29.92,10.0,West,11.5,-,N/A,,Overcast,280,2013-02-23 21:53:00
5:53 PM,30.9,25.0,79,29.93,10.0,West,10.4,-,N/A,,Overcast,280,2013-02-23 22:53:00
6:53 PM,30.9,25.0,79,29.94,10.0,West,9.2,-,N/A,,Overcast,280,2013-02-23 23:53:00
7:53 PM,30.9,24.1,76,29.94,10.0,West,10.4,-,N/A,,Overcast,280,2013-02-24 00:53:00
8:53 PM,30.0,24.1,79,29.94,10.0,West,9.2,-,N/A,,Overcast,280,2013-02-24 01:53:00
9:53 PM,30.0,24.1,79,29.94,10.0,West,8.1,-,N/A,,Overcast,280,2013-02-24 02:53:00
11:27 PM,30.2,23.0,75,29.89,10.0,West,11.5,-,N/A,,Overcast,270,2013-02-24 04:27:00
11:50 PM,30.2,23.0,75,29.89,10.0,WNW,11.5,-,N/A,,Overcast,290,2013-02-24 04:50:00
11:53 PM,30.0,23.0,75,29.91,10.0,WNW,9.2,-,N/A,,Overcast,290,2013-02-24 04:53:00